Theta_e
320 325 327 327 326 326 326 327 327 325 320 318 318 319 320 322 320 320 322 323 322 320 322 321 323 325 326 327 327 327 328 329 327 323 322 323 320 319 319 319 318 319 319 320
320 325 324 324 324 327 326 328 327 322 320 319 319 319 317 318 320 322 323 324 323 323 322 321 322 324 328 327 326 329 329 327 327 327 323 322 321 319 318 319 318 318 319 320
323 323 322 324 326 328 326 328 328 326 319 318 319 320 319 318 319 322 323 323 324 324 323 323 322 323 325 328 328 326 327 326 327 326 325 324 323 323 321 319 318 319 319 320
322 321 323 324 326 327 330 326 327 322 323 324 318 323 315 316 317 317 320 322 323 324 324 324 323 321 323 324 325 326 326 325 327 328 326 324 324 323 323 322 322 320 320 321
322 322 323 325 325 325 327 319 322 323 322 319 316 319 317 314 315 314 315 320 322 323 324 323 324 322 320 323 323 323 324 326 326 327 327 327 325 324 324 324 323 323 322 322
319 320 321 323 323 323 319 319 320 318 318 326 320 319 318 316 316 315 315 318 319 320 323 323 324 324 324 321 322 324 325 324 325 325 326 327 327 325 326 326 325 325 325 324
320 321 319 321 324 322 321 325 322 324 324 326 315 318 322 315 314 312 314 318 320 321 320 321 322 322 322 323 323 322 323 324 324 325 326 326 324 325 327 327 326 326 325 324
323 324 321 321 324 326 324 326 323 328 324 321 313 320 320 314 318 316 316 317 319 319 320 320 319 318 319 318 318 320 321 322 322 323 325 325 326 326 327 328 328 328 326 324
322 322 320 321 320 322 324 325 318 312 303 312 313 313 312 311 312 314 315 314 315 316 315 315 314 314 316 316 316 317 319 320 321 323 323 325 326 327 328 327 329 329 328 327
319 321 321 321 319 320 321 317 318 315 315 316 314 313 314 314 313 311 309 313 314 314 314 314 314 314 313 313 312 312 314 315 316 318 321 324 325 326 327 328 328 327 327 329
315 319 319 318 322 323 318 321 317 315 313 318 315 314 310 313 314 312 309 313 315 315 314 313 311 311 311 311 311 311 310 310 310 310 311 312 315 320 324 326 327 328 329 330
317 319 320 322 311 316 318 321 315 322 318 313 314 313 309 312 313 312 312 314 315 315 315 313 311 311 311 311 311 311 311 311 310 310 310 310 309 309 310 313 316 322 325 327
314 319 321 318 313 313 319 316 319 314 312 314 316 315 309 307 309 312 313 314 314 314 312 312 310 310 311 311 311 311 310 311 311 311 310 311 310 309 309 309 309 309 312 319
313 316 320 321 319 319 320 317 318 317 315 317 318 314 309 307 307 307 309 312 312 312 311 310 310 311 311 310 310 310 311 310 310 310 310 310 309 309 309 309 309 309 309 309
314 317 313 314 315 316 319 319 317 318 317 317 317 314 310 307 306 307 310 310 310 310 310 311 311 311 310 310 310 310 310 310 310 310 310 310 309 308 309 309 309 309 309 309
311 312 312 308 314 315 315 318 315 318 317 315 314 314 312 309 308 307 309 310 310 311 311 311 311 311 310 310 310 310 310 310 309 309 309 309 309 308 308 309 309 309 309 309
314 309 313 311 313 313 316 316 316 316 316 316 317 315 310 309 306 307 310 310 311 311 311 311 312 311 310 310 310 310 310 310 309 309 309 309 308 308 308 308 309 309 309 309
313 312 306 310 315 319 314 313 314 315 316 315 315 314 312 313 313 312 311 311 311 312 312 312 311 311 310 310 310 310 310 309 309 309 308 308 308 307 307 308 308 308 308 309
312 309 309 314 316 309 308 309 314 315 316 315 315 315 312 312 312 311 311 311 313 312 311 311 310 310 310 310 309 309 309 308 308 307 307 307 307 307 307 307 307 308 308 308
310 310 312 305 316 315 312 306 313 312 317 314 314 315 308 309 310 312 312 312 311 311 311 311 310 310 309 309 308 308 308 308 308 308 308 307 307 308 307 307 307 307 308 308
313 312 315 314 312 309 306 306 313 316 316 314 314 315 312 311 314 314 313 312 311 311 310 310 309 309 309 308 308 308 309 308 308 308 308 308 307 307 306 306 306 307 307 307
313 314 311 305 309 316 302 311 314 313 312 310 312 314 314 313 313 313 311 311 310 309 308 309 309 308 308 309 309 309 308 308 307 307 307 308 307 307 306 306 306 306 306 306
313 313 313 311 312 304 306 310 313 311 309 307 308 310 312 312 311 310 310 309 309 309 309 308 308 308 309 309 308 308 308 307 306 306 307 307 307 307 306 305 305 305 304 305
304 303 309 308 305 303 304 306 310 308 310 309 309 308 308 309 310 308 309 308 308 308 308 308 308 308 308 308 307 307 306 306 306 307 307 307 307 307 306 305 305 304 302 304
305 305 302 303 303 302 304 307 308 308 309 309 309 309 308 308 308 308 308 308 308 308 307 307 308 308 308 307 306 306 305 305 306 305 306 306 306 306 305 305 304 302 301 302
298 306 311 310 303 304 305 308 309 308 308 309 308 308 308 309 309 308 308 308 308 307 306 307 307 307 306 306 305 305 305 304 304 304 304 305 305 304 303 302 299 299 299 300
Wind_Speed
17 9 22 30 22 7 9 8 11 8 5 5 11 8 11 14 11 16 26 34 35 33 29 27 26 26 28 30 30 30 32 32 32 35 34 33 34 33 32 30 28 27 26 26
7 21 23 16 11 17 14 12 11 3 3 7 6 13 10 12 14 21 24 28 27 34 30 33 32 31 33 31 31 31 32 32 33 35 37 36 34 35 35 34 33 31 30 29
16 22 18 15 17 18 8 18 11 7 4 1 3 8 7 10 20 29 34 35 32 33 32 30 34 36 35 35 34 33 33 33 33 33 36 39 38 38 37 38 38 36 34 32
19 14 19 22 22 19 18 7 8 6 10 6 6 5 5 8 14 12 35 37 40 40 37 33 33 36 40 37 34 34 33 34 33 34 36 39 42 43 41 40 39 38 37 36
16 26 26 27 33 23 6 10 8 5 6 4 4 2 6 3 7 11 22 37 45 41 37 36 31 33 35 38 37 35 34 34 34 35 38 38 40 42 42 42 40 39 39 39
6 24 19 18 11 12 10 10 8 5 1 9 9 8 5 6 8 6 15 31 30 37 39 34 32 31 32 34 40 40 40 37 35 35 38 40 40 41 43 42 41 41 40 40
16 18 8 21 17 7 8 18 4 4 4 5 7 7 12 7 8 10 15 21 24 22 27 33 34 33 31 32 34 37 42 41 39 38 38 39 40 41 42 42 41 41 40 40
24 14 23 21 23 15 25 18 6 8 5 4 4 9 8 13 23 18 12 12 21 21 22 21 22 24 26 26 27 31 34 36 40 40 40 39 40 41 42 42 43 43 43 42
21 18 16 25 13 19 11 14 11 7 3 3 5 6 9 7 9 17 20 11 17 20 21 18 15 15 17 18 19 23 26 27 32 35 37 40 41 42 43 42 44 45 45 45
7 13 21 20 15 16 15 10 7 1 7 5 4 5 7 7 11 13 10 23 24 20 17 16 15 17 17 16 16 17 18 21 23 27 31 34 38 40 42 44 46 47 47 48
7 17 11 14 14 20 8 13 6 5 4 9 4 7 9 17 17 16 16 28 26 23 21 17 15 16 14 11 9 8 9 10 13 16 22 27 32 36 39 43 46 49 49 50
15 15 11 27 1 8 19 20 6 13 8 4 4 6 7 16 15 18 25 30 25 24 25 22 21 22 12 8 5 7 7 6 7 10 12 16 19 25 33 39 42 44 45 45
10 10 15 6 4 3 18 11 19 4 4 7 6 6 4 6 8 21 26 26 26 28 27 24 25 18 10 8 6 7 9 11 13 14 17 19 20 22 24 27 32 37 42 44
14 6 21 23 26 27 30 21 29 13 6 8 17 5 5 5 11 12 25 31 30 31 28 25 24 16 10 9 7 6 8 11 12 14 16 19 21 22 23 23 25 28 32 37
14 4 5 2 14 13 23 25 20 20 18 11 14 8 8 9 9 20 33 34 31 30 29 28 23 15 11 11 10 9 10 12 15 15 17 17 19 20 21 21 21 22 23 27
3 7 11 2 17 20 13 25 16 23 17 9 4 9 9 16 13 17 32 35 35 34 31 24 18 16 11 10 10 12 14 15 18 19 19 19 20 21 21 21 21 21 22 23
22 9 11 7 13 12 7 24 26 24 26 28 24 23 9 8 10 23 34 39 38 35 29 24 18 16 13 14 15 17 18 21 22 22 22 21 21 21 21 22 22 22 22 24
17 15 4 5 14 12 8 25 31 33 32 28 21 16 15 17 32 37 42 46 40 33 27 23 19 17 17 17 19 21 22 24 24 24 22 21 21 20 21 22 22 23 24 24
18 6 5 7 13 1 5 15 32 26 31 32 28 26 11 23 24 27 42 37 34 30 26 20 19 19 18 21 20 19 20 20 20 18 18 20 20 20 22 23 23 23 23 22
8 7 9 4 10 17 13 9 25 4 17 25 37 30 10 19 11 16 32 39 31 26 22 21 20 19 18 17 15 14 14 14 14 15 16 18 19 21 22 23 24 25 23 21
10 7 13 12 5 7 6 12 33 15 19 23 43 39 27 17 32 25 30 30 26 25 26 26 22 18 16 13 11 9 8 8 9 9 11 13 15 15 17 18 19 19 19 17
11 11 6 4 2 16 13 30 29 21 11 6 31 41 49 54 33 29 23 30 29 28 26 25 21 18 14 11 9 8 7 8 9 10 12 13 15 16 16 17 17 17 15 13
5 12 12 16 12 0 40 22 27 24 15 11 21 39 46 40 38 33 33 27 28 29 26 23 22 21 18 15 12 11 8 9 10 11 11 12 13 13 14 14 14 13 12 10
2 4 6 6 6 6 27 14 36 14 21 12 8 16 35 40 37 33 36 35 34 30 25 24 24 23 18 14 13 11 9 8 7 7 8 8 8 9 10 11 11 11 10 10
3 10 7 1 1 5 16 29 40 11 13 15 12 15 23 29 32 35 36 37 35 31 30 27 26 24 20 17 15 13 11 8 6 4 1 2 3 4 5 6 7 6 7 8
4 2 13 6 10 4 15 38 33 29 19 19 24 20 19 23 29 33 36 36 34 33 31 29 27 24 20 18 17 14 12 9 7 5 2 1 1 2 2 1 1 1 2 4
Wind_Direction
192 193 199 195 199 177 168 162 195 212 197 137 202 215 235 213 219 223 230 233 234 228 238 234 230 227 224 223 225 224 229 234 233 232 231 231 233 237 237 239 239 238 240 241
178 211 203 186 178 197 166 193 197 226 182 171 205 238 242 244 241 235 233 233 232 230 231 233 236 232 229 229 230 230 232 234 237 238 238 237 237 239 242 244 244 244 243 243
193 208 191 179 183 193 184 199 198 201 106 8 108 271 222 250 244 245 248 247 240 234 230 230 233 234 234 232 233 235 236 237 236 240 239 239 240 242 242 241 243 244 246 246
209 199 177 189 195 186 204 159 189 152 151 201 162 270 249 216 236 223 242 242 240 239 237 237 235 234 232 235 239 242 243 242 242 241 241 241 242 243 245 247 249 248 247 249
199 179 179 190 196 190 188 128 147 182 174 127 199 214 265 188 236 230 233 238 240 237 238 235 236 237 237 235 238 243 246 246 245 246 246 247 248 251 251 251 253 253 253 252
190 191 177 194 174 176 124 95 47 39 59 222 196 188 246 197 206 246 233 237 238 235 233 233 237 239 242 240 241 241 243 249 249 250 250 253 255 254 254 254 255 255 254 254
195 182 170 160 149 163 146 156 134 191 206 230 159 183 238 230 240 225 235 232 226 225 231 236 240 242 243 243 241 242 243 246 252 254 254 255 259 259 258 261 263 263 261 258
185 191 172 176 187 180 175 175 159 170 183 195 120 222 237 220 220 218 215 238 215 212 218 227 233 239 241 244 242 241 244 249 250 252 257 260 261 261 262 264 265 265 266 267
184 207 184 179 178 157 179 195 168 97 349 99 204 280 298 209 229 238 240 211 184 181 185 192 203 215 222 233 236 237 240 244 248 252 257 259 262 262 264 267 268 269 271 271
217 181 185 183 151 193 183 157 162 208 145 218 250 274 221 220 216 231 205 206 196 189 192 197 213 218 223 230 236 236 235 240 246 252 255 258 261 264 266 267 267 269 271 273
218 175 168 163 202 173 157 188 180 133 173 188 161 244 203 203 216 202 203 202 197 193 197 194 198 185 171 169 181 201 219 231 245 252 254 254 253 255 257 260 264 268 271 271
204 191 167 193 22 204 179 189 177 188 206 231 163 258 189 207 208 185 198 198 198 204 198 191 184 175 180 186 199 216 221 244 266 271 271 268 267 263 260 259 260 262 265 268
191 163 159 167 344 303 198 180 202 113 92 200 156 251 191 182 173 198 196 203 195 190 188 193 192 193 204 205 216 227 234 262 270 269 273 275 274 272 271 268 265 263 263 264
166 177 186 188 185 182 189 200 198 186 167 187 211 203 274 182 180 188 186 180 180 183 188 187 187 202 218 226 234 254 261 269 278 279 284 286 285 280 279 278 276 272 269 266
177 155 148 183 172 181 203 195 190 200 203 191 223 206 226 204 189 180 187 180 183 187 190 197 199 208 224 227 243 261 268 273 282 288 289 295 288 283 281 278 276 276 275 272
217 153 158 356 170 184 195 202 199 210 213 257 178 218 194 208 201 168 179 184 190 196 201 203 208 225 240 256 264 270 273 283 287 287 287 279 281 280 282 283 280 276 276 275
181 152 160 194 165 135 205 195 200 210 209 211 215 220 156 184 185 190 191 192 198 204 205 211 225 242 259 262 268 273 274 278 282 281 283 274 272 275 277 277 278 279 280 280
180 157 85 130 124 193 225 195 198 204 210 214 231 212 192 198 209 206 201 201 205 209 216 222 231 246 256 261 272 277 277 280 279 278 273 266 266 272 276 278 280 280 280 280
178 135 102 155 195 315 252 199 191 192 221 215 223 229 196 198 209 228 214 206 216 215 217 225 242 237 250 264 267 271 277 279 280 276 276 273 276 282 284 282 280 277 280 282
138 143 143 139 182 208 236 153 202 155 259 215 216 224 155 149 198 225 213 217 208 224 229 226 224 240 247 250 255 260 268 276 277 275 278 283 287 290 292 292 289 287 287 286
145 132 173 177 190 273 222 153 139 161 237 223 212 210 183 199 215 203 201 211 223 228 229 231 229 223 230 228 227 232 246 262 270 277 284 290 291 292 292 288 284 280 281 286
155 152 163 115 191 255 163 151 171 193 143 192 194 196 203 214 212 212 210 214 220 215 206 199 204 208 197 192 207 229 254 274 284 291 294 295 296 300 298 289 278 272 274 275
147 182 172 190 194 340 173 169 190 193 195 172 197 207 205 211 209 199 194 195 198 195 194 198 195 189 189 195 206 224 240 259 279 288 292 295 299 298 293 284 276 273 272 278
334 151 157 108 205 197 182 200 197 199 184 175 184 199 202 206 204 195 192 187 186 189 198 194 188 188 189 198 215 221 239 252 264 278 286 302 305 304 306 298 290 279 276 274
185 150 149 252 112 102 193 194 197 188 183 181 167 171 182 191 191 195 189 188 189 192 191 189 191 191 193 204 211 212 217 214 209 215 254 328 317 328 321 309 293 280 275 280
353 202 193 226 156 136 188 196 199 196 168 174 164 157 165 179 183 186 185 188 191 192 188 190 191 194 197 202 204 201 199 196 200 207 200 245 315 357 327 296 255 196 203 262